Simultaneous Nadir Overpasses (SNOs) Predictions

Prediction of SNOs between GOES-17 and METOP-C Satellite Orbit:

Table of predicted SNOs for the next 14.0 days since TLE Epoch: 2/12/2022
Index Date Time (GOES-17) GOES-17 Lat,Lon METOP-C Lat,Lon Distance(km) Time Diff (sec)
1 02/12/2022 06:59:02 -0.01,-137.20 -0.95,-141.42 480.61 80
2 02/13/2022 06:35:43 -0.01,-137.19 0.16,-136.42 87.92 80
3 02/14/2022 18:54:33 0.03,-137.19 0.88,-140.97 431.56 80
4 02/15/2022 18:36:34 0.03,-137.18 -0.23,-135.98 136.76 80
5 02/17/2022 06:55:35 -0.02,-137.16 -0.76,-140.58 389.48 80
6 02/18/2022 06:32:14 -0.02,-137.15 0.30,-135.57 178.56 80
7 02/19/2022 18:51:06 0.02,-137.13 0.69,-140.14 342.26 80
8 02/20/2022 18:33:06 0.02,-137.12 -0.42,-135.14 225.43 80
9 02/22/2022 06:52:07 -0.02,-137.09 -0.60,-139.74 301.70 80
10 02/23/2022 06:28:47 -0.02,-137.07 0.52,-134.74 265.32 80
11 02/24/2022 18:47:38 0.01,-137.04 0.49,-139.30 257.62 80
12 02/25/2022 18:29:38 0.01,-137.01 -0.57,-134.29 308.76 80
